Location: Vesunti
(61.5000°N, 22.8333°E)
Time: 15:34:44
(UTC+00:00)

Cosmos 1656 Rocket - Pass Details

Date: 17 February 2020
Orbit: 794 x 848 km, 71.1° (Epoch: 27 March)

Event Time Altitude Azimuth Distance (km) Brightness Sun altitude
Exits shadow 03:33:10 14° 317° (NW) 2,178 5.5 -19.0°
Maximum altitude 03:38:04 77° 233° (SW) 874 3.6 -18.4°
Drops below altitude 10° 03:43:45 10° 148° (SSE) 2,472 6.4 -17.7°
Sets 03:46:12 0° 147° (SSE) 3,406 7.2 -17.4°
